RH
66 67 68 67 70 70 70 71 73 78 74 75 75 73 70 64 63 63 70 86 90 87 83 71 64 56 43 42 45 25 34 28 21 24 24 26 23 23 24 22 24 22 21 25 27 30 29
67 69 66 69 68 68 71 72 74 78 77 73 74 72 67 64 60 66 75 84 88 87 80 69 62 58 41 56 33 25 23 24 23 24 26 24 25 22 23 23 22 25 24 22 22 24 23
63 63 64 69 68 68 72 74 74 72 72 72 74 70 68 68 64 62 79 92 89 76 69 64 60 33 45 55 28 25 28 31 28 29 31 30 28 25 21 26 28 25 24 16 20 22 26
66 66 67 73 74 72 69 71 70 69 70 70 70 70 70 68 66 67 80 92 85 78 71 59 50 33 57 38 26 27 26 31 31 32 36 33 30 31 31 28 27 28 27 24 25 30 33
69 67 71 71 76 72 72 75 77 77 77 74 69 66 65 66 70 74 87 86 81 72 61 47 35 34 51 37 31 28 28 35 34 34 35 32 36 39 39 41 39 34 24 24 26 33 36
69 68 73 70 71 72 72 72 78 80 81 81 84 83 82 79 81 91 83 75 70 52 33 25 24 36 42 40 33 31 28 34 37 39 44 42 45 49 44 51 45 48 42 30 30 28 32
70 73 77 75 73 74 73 74 77 79 81 80 83 85 83 88 77 77 65 46 35 36 34 39 37 40 37 32 31 36 33 35 38 35 45 46 86 63 50 41 41 48 40 39 35 34 45
75 77 76 76 76 74 76 76 75 75 77 81 80 79 86 83 75 70 54 51 61 42 54 39 39 39 34 32 42 42 34 42 41 57 47 54 67 45 48 51 51 57 63 48 43 41 45
72 75 76 76 72 74 77 78 78 77 77 77 80 79 75 69 68 64 62 71 58 51 45 49 44 46 46 40 48 52 42 48 51 64 59 65 50 47 54 56 55 49 49 49 72 54 43
72 75 75 72 75 76 76 77 75 77 79 79 75 78 75 68 60 55 63 60 53 47 81 54 49 49 44 47 56 46 47 54 55 66 62 60 51 55 60 60 50 54 46 57 66 76 70
71 74 76 73 77 78 78 78 78 77 75 79 78 74 74 66 53 54 60 54 49 47 92 46 49 40 44 51 52 56 50 52 70 65 64 64 54 61 68 52 51 53 54 67 79 91 82
73 73 75 75 77 78 78 78 76 80 80 76 76 73 68 55 49 58 55 52 45 87 89 85 49 52 50 50 54 53 56 54 57 66 56 62 52 61 54 54 52 50 64 74 72 91 93
74 73 74 76 77 78 78 78 80 82 80 77 76 72 60 46 50 57 52 45 95 88 47 65 60 50 46 47 48 55 58 51 62 95 100 61 58 55 57 62 59 70 98 96 95 96 77
73 74 74 74 75 76 78 79 79 83 82 78 77 74 67 53 56 58 49 55 95 54 57 48 52 46 50 46 48 50 56 52 55 59 76 81 93 59 57 60 73 69 88 93 88 71 62
75 73 73 75 75 76 78 79 78 84 80 75 75 49 50 53 60 55 42 98 86 59 48 50 46 45 44 45 50 45 46 47 47 53 67 63 62 47 52 49 57 59 79 61 90 57 74
81 79 73 72 73 76 77 78 78 85 77 72 48 48 54 52 57 55 67 67 60 48 47 44 44 42 42 41 47 44 40 38 47 48 47 52 82 45 48 54 55 62 54 70 94 80 75
82 81 80 72 74 76 77 78 78 81 79 72 51 43 58 51 55 42 88 60 51 45 47 48 45 44 39 41 42 37 37 39 42 48 47 50 61 54 48 56 49 66 55 50 53 54 63
80 81 81 80 77 78 79 78 78 78 79 65 51 72 54 49 58 37 47 46 57 50 48 48 48 45 41 40 41 39 38 34 39 44 47 45 50 68 43 38 39 38 40 38 61 54 49
70 78 82 82 88 83 82 80 79 74 77 52 43 44 53 49 69 45 50 49 47 49 46 47 46 44 39 42 44 39 40 40 42 48 47 45 54 68 44 40 44 46 40 39 39 59 70
76 70 79 83 85 88 87 83 81 76 75 56 44 74 45 40 41 36 43 44 48 50 46 44 40 42 41 39 36 39 40 38 49 47 62 53 50 55 53 37 34 43 36 40 49 72 45
81 76 71 80 83 80 80 82 83 78 74 59 45 50 54 56 37 40 40 36 41 49 50 44 45 42 36 34 36 37 36 36 40 54 53 52 62 52 48 43 44 46 44 40 58 56 49
86 80 75 72 82 80 78 84 84 80 75 51 50 44 47 41 46 41 48 41 39 34 40 43 48 34 37 38 26 23 31 33 30 45 46 45 57 47 60 34 34 45 38 38 39 37 44
88 86 80 74 72 82 81 82 85 80 73 48 51 48 47 53 42 39 30 33 39 37 34 37 40 39 41 38 35 32 30 32 32 38 42 43 51 53 53 33 32 35 26 31 34 31 34
91 89 84 79 75 78 85 84 84 80 68 50 49 46 46 33 38 34 41 45 45 43 48 42 45 45 42 40 38 36 44 42 40 39 40 43 51 51 59 38 50 26 30 24 26 24 25
93 91 89 84 82 77 82 85 82 79 69 51 54 51 46 44 34 34 41 43 41 43 53 50 44 40 45 45 43 33 35 41 43 47 49 47 48 54 57 40 28 20 26 34 32 20 20
94 93 90 89 86 85 82 84 84 81 67 56 57 58 49 50 38 36 40 40 40 35 36 50 49 48 51 45 41 41 29 26 30 53 52 53 52 51 47 55 31 14 26 29 29 25 22
92 93 93 91 90 88 85 84 85 87 81 67 60 64 54 60 46 43 45 40 39 40 41 47 52 63 55 46 47 41 31 34 32 33 66 66 66 74 62 60 38 20 31 32 26 18 20
92 94 95 94 92 90 88 87 86 87 88 78 71 63 60 61 53 50 45 47 52 50 39 53 55 61 61 56 43 39 37 32 43 28 42 45 52 56 51 55 64 30 40 29 19 22 24
90 92 94 96 95 93 91 90 88 87 89 81 88 73 66 69 62 51 46 42 43 43 46 50 49 54 48 49 42 40 43 39 35 29 33 38 27 25 35 37 28 28 22 24 25 26 28
Wind_Speed
22 23 22 21 19 19 19 17 15 16 16 14 16 15 14 13 9 8 8 6 22 20 10 10 8 2 5 12 10 8 9 6 7 6 6 5 1 0 2 1 2 6 2 5 7 8 10
20 21 23 21 18 18 18 19 19 19 16 16 14 13 14 13 7 7 8 19 23 19 18 12 6 5 3 15 4 6 8 10 11 8 10 7 4 4 3 1 4 4 6 9 6 8 8
23 23 21 18 15 15 17 14 15 16 15 13 12 12 13 12 6 5 7 21 22 15 14 11 3 12 23 10 4 7 10 11 11 10 9 8 5 4 0 1 2 4 9 8 9 5 5
20 21 21 21 14 14 16 17 13 13 13 10 8 8 10 10 7 5 7 23 18 11 11 10 5 10 8 2 3 6 5 8 9 7 7 6 6 4 4 1 3 5 4 6 7 3 3
22 21 22 25 21 22 19 23 22 16 15 7 3 3 7 9 8 8 17 22 16 9 11 4 3 6 8 4 3 6 8 5 4 5 5 5 2 2 2 4 6 5 8 7 6 3 3
23 22 23 23 24 23 23 24 22 24 27 29 27 22 18 10 9 20 19 13 15 7 9 4 4 5 4 6 3 3 4 5 3 1 3 0 1 2 2 3 4 7 8 7 10 2 10
23 22 22 22 24 21 23 24 22 23 25 27 28 29 29 22 24 19 10 6 6 7 16 11 9 13 9 5 2 4 5 4 1 1 1 3 3 4 3 4 4 4 9 12 14 9 12
22 22 22 22 22 22 22 23 22 21 21 21 23 22 21 11 11 7 6 5 8 5 14 13 13 11 6 2 2 6 6 1 3 5 2 4 4 3 1 1 3 3 9 11 6 5 15
21 20 21 20 22 22 21 20 19 18 17 15 17 12 9 5 5 8 11 6 6 5 6 6 5 5 4 4 4 5 6 1 4 6 5 2 4 2 3 4 7 8 8 9 9 17 17
19 20 19 19 21 21 21 21 20 17 15 12 13 11 6 1 3 3 5 4 5 4 4 6 3 4 1 2 2 3 3 4 2 4 3 1 3 2 4 7 6 9 6 6 9 11 6
18 18 18 17 17 19 20 20 19 16 15 13 9 9 12 5 5 4 2 5 5 5 4 5 3 3 2 2 1 3 1 2 4 5 2 1 1 3 6 5 2 5 3 9 10 8 9
15 16 16 16 16 18 19 19 19 17 14 13 12 5 1 3 4 2 4 4 3 1 4 3 3 2 3 0 1 1 0 1 1 2 1 4 0 4 4 6 7 10 10 9 3 2 4
13 13 13 15 16 17 18 18 19 18 15 13 12 12 4 0 2 4 3 4 3 5 2 1 1 1 1 5 3 6 6 4 5 5 4 5 5 2 4 6 3 3 5 2 3 3 4
11 11 12 12 14 16 17 18 19 17 12 9 9 12 5 3 3 4 3 1 8 1 2 2 2 1 5 8 3 5 5 3 3 4 4 4 3 6 9 3 3 1 2 4 5 5 9
11 11 10 11 12 13 16 17 18 16 10 9 8 2 2 5 5 5 6 5 3 3 1 1 0 3 3 2 3 4 2 4 2 1 4 5 2 2 6 3 4 4 3 4 5 9 5
10 9 9 9 10 12 14 16 17 15 10 7 3 3 1 8 5 6 5 5 2 2 2 2 3 2 3 3 3 2 1 3 0 2 3 2 6 3 3 4 7 7 6 3 3 5 6
10 10 7 9 10 11 12 14 17 17 14 7 1 4 2 5 2 1 4 5 3 2 2 2 2 2 3 4 4 4 2 4 2 1 4 4 1 0 3 8 3 5 5 5 3 5 5
9 10 10 7 8 10 12 13 14 17 17 7 1 1 3 3 1 1 4 7 5 8 5 3 2 3 4 3 6 4 4 2 2 1 4 2 5 6 7 4 2 6 7 5 4 1 7
9 9 10 10 9 7 10 12 14 13 12 5 3 1 2 3 1 3 3 5 3 5 7 6 7 6 4 3 4 5 4 2 4 3 3 3 3 7 5 3 4 6 8 8 5 4 9
9 9 9 9 9 7 7 9 12 13 9 5 4 3 1 2 1 1 3 4 4 5 4 4 3 4 6 7 8 5 5 1 2 5 2 1 6 10 9 11 8 11 10 10 9 5 8
8 8 8 8 8 8 7 8 9 10 9 4 3 3 4 1 3 1 1 3 7 5 5 6 5 12 8 4 6 6 6 6 6 3 4 5 8 12 17 22 20 21 21 19 19 18 11
8 8 7 8 6 6 6 9 10 10 6 2 4 3 2 0 1 3 5 7 9 4 5 6 8 5 9 7 6 6 6 6 7 7 6 4 6 13 16 17 11 17 19 20 21 22 25
9 9 8 7 7 6 5 7 9 12 8 1 1 0 4 5 3 4 3 2 5 4 7 5 5 6 9 11 10 12 12 12 10 7 8 6 5 7 7 8 16 17 18 21 13 12 18
10 10 9 8 7 6 5 4 7 8 8 3 2 2 4 1 5 5 2 3 7 8 6 2 5 6 3 5 12 14 13 15 15 15 12 9 6 6 8 12 5 3 3 5 17 12 16
11 10 12 10 9 7 6 4 3 4 4 2 0 3 2 6 4 8 9 8 6 8 7 10 10 6 4 7 6 7 5 5 6 12 14 13 10 6 5 6 15 9 4 5 6 4 11
10 11 11 12 10 9 8 7 4 3 1 3 1 2 3 5 1 4 5 5 6 7 6 6 1 1 3 4 3 4 4 3 3 4 3 9 12 7 2 6 6 5 4 2 2 5 7
10 11 12 12 13 11 9 8 7 6 6 3 1 3 3 5 6 5 6 5 2 3 4 2 4 5 4 4 5 5 6 1 4 4 7 5 7 14 11 8 11 2 8 5 4 4 8
10 11 12 13 14 14 12 10 9 8 8 4 1 4 3 5 7 7 6 8 4 5 5 5 3 5 5 6 4 5 5 3 4 5 6 10 7 7 8 8 12 11 7 7 3 2 2
11 10 12 13 14 15 14 13 11 11 10 7 3 1 2 4 6 2 10 12 15 14 7 5 4 2 4 5 3 3 5 4 5 5 8 8 11 3 11 8 2 12 9 9 4 5 7
Wind_Direction
24 19 33 36 31 40 47 41 48 70 98 105 104 94 102 97 91 80 95 115 137 126 131 117 109 347 263 84 64 23 6 25 19 31 37 43 69 121 172 121 231 257 311 283 274 282 281
24 27 36 36 36 38 50 52 61 79 85 91 94 86 96 84 78 74 74 125 127 136 139 123 114 291 156 87 19 26 27 43 35 55 52 38 42 10 91 77 266 13 285 273 276 272 273
27 27 29 29 32 39 50 49 49 72 87 95 97 92 96 93 93 88 111 147 124 134 131 126 75 96 68 83 57 63 59 48 41 32 62 39 19 309 312 163 346 300 290 269 227 254 267
25 23 25 22 31 54 50 44 36 55 65 73 83 98 100 101 111 94 95 108 112 124 96 78 316 72 74 51 39 49 51 59 52 49 48 33 30 66 351 346 230 263 258 280 117 135 124
24 30 31 35 60 73 64 47 61 61 66 71 124 152 128 120 121 115 118 108 111 93 84 35 29 89 99 166 74 40 24 29 26 52 46 51 14 51 210 270 255 195 298 317 328 100 309
31 43 42 50 58 66 59 55 58 71 73 67 69 81 102 106 135 123 124 128 129 147 64 96 85 97 173 94 68 5 30 13 7 353 181 65 15 209 284 325 322 339 319 295 288 215 286
33 34 42 49 52 54 56 58 70 64 68 69 70 83 76 72 99 114 108 111 161 68 54 56 65 82 105 94 192 36 1 319 304 79 351 60 73 59 42 6 351 328 292 291 293 333 315
29 36 40 39 43 42 49 51 59 59 64 66 61 72 72 68 48 32 24 37 28 68 77 66 76 77 80 5 88 34 325 343 19 62 139 170 94 71 78 285 278 247 293 310 320 323 317
27 35 39 44 44 39 32 35 40 47 55 54 65 85 101 96 59 57 69 46 340 335 95 73 40 43 24 321 43 30 343 323 16 35 31 41 87 151 262 273 282 284 304 328 325 322 285
32 25 36 39 36 31 29 29 28 34 43 50 54 65 64 122 132 130 56 347 303 296 102 29 19 65 20 312 108 359 5 344 88 21 4 84 110 261 288 291 303 316 32 331 314 324 312
30 28 25 31 28 27 23 23 22 20 26 34 52 46 46 48 119 92 20 304 296 235 79 9 39 358 342 342 342 117 358 270 41 354 306 48 293 292 287 350 340 318 340 304 290 289 305
27 29 25 20 22 23 27 21 23 19 12 21 32 47 295 59 73 56 313 302 248 19 70 341 328 327 227 40 119 9 356 183 28 346 254 274 167 273 308 317 276 303 314 304 225 241 256
29 21 27 20 13 17 21 26 21 20 16 6 5 23 57 285 69 344 310 232 41 47 222 47 31 315 340 29 52 3 359 13 2 8 355 299 210 227 246 275 164 358 306 246 226 214 289
20 24 15 20 16 8 13 15 20 16 9 8 350 334 7 27 328 286 242 164 65 196 89 166 287 331 31 6 55 345 322 336 112 340 307 320 224 209 164 264 297 336 16 337 302 335 318
4 5 15 9 11 11 3 8 9 13 12 356 312 1 340 9 329 276 264 50 74 63 32 21 93 6 53 61 305 323 307 332 5 224 327 325 263 164 206 248 254 88 270 347 276 255 267
6 357 351 6 4 2 1 357 359 1 359 340 335 296 48 331 320 259 74 80 55 6 356 325 8 352 340 25 287 248 259 87 276 257 269 14 289 245 126 232 223 251 347 264 191 307 302
3 5 354 347 356 354 353 354 350 349 350 306 265 267 52 335 252 217 78 85 124 173 261 304 16 292 290 317 284 283 302 137 214 192 271 314 236 257 229 204 211 181 226 214 287 258 298
350 1 8 350 336 343 344 344 350 346 341 292 279 296 18 316 295 84 127 148 160 164 176 193 279 290 286 307 273 273 266 280 170 243 291 47 301 275 258 114 297 273 265 257 279 300 260
340 347 357 358 349 338 344 341 342 351 354 319 312 312 133 299 78 112 131 149 220 173 195 187 206 227 210 263 277 246 273 126 198 233 331 74 231 296 166 161 175 229 214 237 272 319 252
325 335 346 358 355 348 344 349 344 349 349 299 287 312 116 131 39 275 176 192 195 213 230 221 229 214 216 232 220 269 261 236 186 231 89 262 257 245 263 297 308 277 242 222 228 253 269
301 320 329 344 357 358 360 360 359 357 355 293 352 65 354 274 128 145 302 175 213 204 234 212 216 232 216 248 228 235 245 260 207 159 210 252 269 268 270 275 274 269 264 251 230 226 258
275 289 309 321 337 355 6 355 358 1 349 281 317 294 179 308 267 217 159 196 228 224 217 231 241 238 230 252 268 300 263 243 266 167 212 202 270 302 291 271 262 261 252 244 242 244 239
271 261 279 297 309 326 347 353 2 358 323 35 81 227 293 118 193 230 236 254 223 200 211 265 289 272 248 271 305 300 287 270 274 250 215 235 270 319 271 322 304 276 249 221 222 227 228
278 260 257 266 280 295 308 335 348 17 4 320 43 284 279 252 239 230 226 226 238 234 270 270 243 249 25 310 287 258 255 257 252 243 238 248 241 260 282 305 251 55 37 337 218 244 228
278 268 249 253 254 266 281 280 301 6 356 329 36 284 292 284 296 258 238 245 246 235 243 256 245 255 327 303 286 292 197 232 231 229 234 230 245 274 272 289 279 286 169 191 191 293 223
278 271 260 242 240 240 244 256 254 252 203 287 222 286 273 304 294 280 267 244 251 239 232 225 205 218 238 256 245 261 267 3 187 177 264 216 231 244 256 281 275 58 142 155 173 247 155
289 282 267 246 235 233 235 234 233 230 203 253 276 251 267 259 244 202 230 276 225 263 271 144 170 184 224 223 242 243 253 86 246 227 171 182 210 226 234 264 278 286 143 156 247 98 161
280 285 275 262 236 230 225 228 225 215 202 196 63 206 268 260 273 224 217 210 214 242 262 104 211 191 187 222 241 239 248 200 259 225 188 193 196 202 206 234 258 136 130 214 55 98 189
273 272 277 269 253 230 227 218 222 215 197 192 235 199 221 240 283 297 253 253 250 265 275 200 319 234 230 235 235 294 246 233 253 256 201 238 216 237 212 228 84 193 241 222 241 253 246